Tracking 32139 objects as of 15-Nov-2025
HD Live streaming from Space Station
objects crossing your sky now

GEESAT 5-06

Track GEESAT 5-06 now!
10-day predictions
GEESAT 5-06 is classified as:


NORAD ID: 65555
Int'l Code: 2025-201F
Perigee: 604.7 km
Apogee: 626.7 km
Inclination: 50.0 °
Period: 96.9 minutes
Semi major axis: 6986 km
RCS: Unknown
Launch date: September 8, 2025
Source: People's Republic of China (PRC)
Launch site: Yellow Sea Launch Area, China (YSLA)
Your satellite tracking list
Your tracking list is empty




NASA's NSSDC Master Catalog

Two Line Element Set (TLE):
1 65555U 25201F   25319.68733185  .00004546  00000-0  53177-3 0  9992
2 65555  49.9919 309.1688 0015764 234.6711 125.2755 14.86608723 10082
Source of the keplerian elements: AFSPC